Regional Weather Roundup
Issued by NWS

Home | Current Version | Previous Version | Graphics & Text | Print | Product List | Glossary On
Versions: 1 2 3 4 5 6 7 8 9 10 11 12 13 14 15 16 17 18 19 20 21 22 23 24 25 26 27 28 29 30 31 32 33 34 35 36 37 38 39 40 41 42 43 44 45 46 47 48 49 50
000
ASUS43 KTOP 170908
RWRKS

WEATHER ROUNDUP FOR KANSAS
NATIONAL WEATHER SERVICE GOODLAND KS
400 AM CDT TUE OCT 17 2017

NOTE:  "FAIR" INDICATES FEW OR NO CLOUDS BELOW 12,000 FEET WITH NO
SIGNIFICANT WEATHER AND/OR OBSTRUCTIONS TO VISIBILITY.

KSZ001>006-013>018-027>032-041>047-171000-
NORTHWEST KANSAS

CITY           SKY/WX    TMP DP  RH WIND       PRES   REMARKS
GOODLAND       CLOUDY    42  29  59 W8        30.16S
HAYS           CLOUDY    46  37  71 S5        30.13F
HILL CITY      PTCLDY    47  38  71 W6        30.11S
RUSSELL        CLOUDY    49  39  68 S15       30.11F
$$

KSZ061>065-074>080-084>089-171000-
SOUTHWEST KANSAS

CITY           SKY/WX    TMP DP  RH WIND       PRES   REMARKS
DODGE CITY     CLEAR     46  35  65 S12       30.15F
ELKHART          N/A     48  37  65 SW9         N/A
GARDEN CITY    CLOUDY    38  33  82 S7        30.14F
GREAT BEND     CLEAR     48  37  65 S12       30.14F
LIBERAL        CLEAR     42  37  82 SW8       30.15F
PRATT          CLEAR     48  37  64 S13       30.17F
$$

KSZ066>073-081>083-090>101-171000-
SOUTHEAST KANSAS

CITY           SKY/WX    TMP DP  RH WIND       PRES   REMARKS
CHANUTE        PTCLDY    45  41  86 S7        30.24F
COFFEYVILLE    PTCLDY    44  41  89 CALM      30.25F
HUTCHINSON     CLEAR     49  42  77 S8        30.18F
MEDICINE LODGE   N/A     48  39  71 SE7       30.19F
NEWTON         CLEAR     49  40  71 S10       30.20F
PARSONS        PTCLDY    46  40  79 SE3       30.25F
WICHITA INTL   CLEAR     47  42  83 S9        30.20F
WICHITA JABRA  CLEAR     47  41  80 S8        30.20F
WICHITA MCCONL CLEAR     48  39  71 S9        30.20F
WINFIELD       CLEAR     48  42  80 S7        30.23F
$$

KSZ007>012-019>026-033>040-048>060-102>105-171000-
NORTHEAST KANSAS

CITY           SKY/WX    TMP DP  RH WIND       PRES   REMARKS
CONCORDIA      CLEAR     51  41  68 S14G24    30.10F
EMPORIA        PTCLDY    45  39  79 S7        30.20F
LAWRENCE       PTCLDY    47  42  83 SE6       30.20F
MANHATTAN      PTCLDY    52  41  66 SW8       30.16F
MARYSVILLE     PTCLDY    52  41  66 S10       30.13F
OLATHE IND     PTCLDY    47  41  80 S9        30.22F
OLATHE EXE     PTCLDY    47  40  76 S6        30.22F
SALINA         MOCLDY    53  43  68 S12       30.15F
TOPEKA BILLARD PTCLDY    52  42  69 S6        30.19F
TOPEKA FORBES  PTCLDY    53  41  63 S10       30.18F
$$




USA.gov is the U.S. government's official web portal to all federal, state and local government web resources and services.